When you browse on this site, cookies collect data to enhance your experience and personalize the content and advertising you see.
Visit our Privacy Policy to learn more. By continuing to use the site, you agree to this use of cookies and data.
  • In Sweden
  • List of Countries
  • For 7 days
  • Water Temperature
  • Weather Map
  • Weather Widgets
  • user-avatar
    Login

    Hourly Weather Kolemas

    Today, 20 September, Friday

    Time Temperature Precipitation Wind Pressure Humidity
    00:00 +5°C° 0 mm 3 mps 739 mmHg 92%
    01:00 +5°C° 0 mm 3 mps 739 mmHg 93%
    02:00 +5°C° 0 mm 3 mps 739 mmHg 93%
    03:00 +4°C° 0 mm 3 mps 740 mmHg 94%
    04:00 +4°C° 0 mm 3 mps 740 mmHg 94%
    05:00 +4°C° 0 mm 3 mps 740 mmHg 94%
    06:00 +4°C° 0 mm 3 mps 740 mmHg 94%
    07:00 +5°C° 0 mm 3 mps 740 mmHg 88%
    08:00 +7°C° 0 mm 4 mps 740 mmHg 82%
    09:00 +8°C° 0 mm 4 mps 740 mmHg 76%
    10:00 +10°C° 0.2 mm 4 mps 740 mmHg 72%
    11:00 +11°C° 0.2 mm 4 mps 740 mmHg 68%
    12:00 +12°C° 0.2 mm 4 mps 739 mmHg 65%
    13:00 +12°C° 0.4 mm 4 mps 739 mmHg 63%
    14:00 +12°C° 0.4 mm 4 mps 739 mmHg 62%
    15:00 +13°C° 0.4 mm 4 mps 739 mmHg 61%
    16:00 +12°C° 0.3 mm 4 mps 739 mmHg 66%
    17:00 +11°C° 0.3 mm 3 mps 738 mmHg 72%
    18:00 +10°C° 0.3 mm 2 mps 738 mmHg 77%
    19:00 +9°C° 0.3 mm 2 mps 738 mmHg 80%
    20:00 +8°C° 0.3 mm 2 mps 738 mmHg 83%
    21:00 +8°C° 0.3 mm 2 mps 738 mmHg 86%
    22:00 +7°C° 0 mm 2 mps 738 mmHg 87%
    23:00 +7°C° 0 mm 2 mps 738 mmHg 88%

    Tomorrow, 21 September, Saturday

    Time Temperature Precipitation Wind Pressure Humidity
    00:00 +6°C° 0 mm 2 mps 738 mmHg 88%
    01:00 +7°C° 0 mm 1 mps 738 mmHg 89%
    02:00 +7°C° 0 mm 1 mps 738 mmHg 90%
    03:00 +6°C° 0 mm 1 mps 738 mmHg 91%
    04:00 +6°C° 0 mm 1 mps 738 mmHg 92%
    05:00 +6°C° 0 mm 1 mps 738 mmHg 92%
    06:00 +6°C° 0 mm 1 mps 738 mmHg 93%
    07:00 +7°C° 0 mm 1 mps 738 mmHg 88%
    08:00 +7°C° 0 mm 2 mps 738 mmHg 83%
    09:00 +8°C° 0 mm 2 mps 738 mmHg 79%
    10:00 +9°C° 0 mm 3 mps 738 mmHg 72%
    11:00 +10°C° 0 mm 3 mps 738 mmHg 65%
    12:00 +11°C° 0 mm 4 mps 737 mmHg 58%
    13:00 +11°C° 0 mm 4 mps 737 mmHg 57%
    14:00 +11°C° 0 mm 4 mps 737 mmHg 55%
    15:00 +11°C° 0 mm 4 mps 737 mmHg 54%
    16:00 +10°C° 0 mm 4 mps 737 mmHg 57%
    17:00 +9°C° 0 mm 3 mps 737 mmHg 61%
    18:00 +8°C° 0 mm 2 mps 737 mmHg 64%
    19:00 +7°C° 0 mm 2 mps 737 mmHg 66%
    20:00 +7°C° 0 mm 2 mps 737 mmHg 68%
    21:00 +6°C° 0 mm 2 mps 737 mmHg 71%
    22:00 +6°C° 0.1 mm 2 mps 737 mmHg 75%
    23:00 +5°C° 0.1 mm 2 mps 736 mmHg 80%

    Day after tomorrow, 22 September, Sunday

    Time Temperature Precipitation Wind Pressure Humidity
    00:00 +5°C° 0.1 mm 2 mps 736 mmHg 85%
    01:00 +4°C° 0 mm 2 mps 736 mmHg 88%
    02:00 +3°C° 0 mm 3 mps 736 mmHg 90%
    03:00 +2°C° 0 mm 3 mps 736 mmHg 92%
    04:00 +2°C° 0 mm 3 mps 736 mmHg 92%
    05:00 +2°C° 0 mm 3 mps 736 mmHg 93%
    06:00 +1°C° 0 mm 3 mps 735 mmHg 94%
    07:00 +3°C° 0 mm 3 mps 735 mmHg 86%
    08:00 +4°C° 0 mm 4 mps 735 mmHg 78%
    09:00 +5°C° 0 mm 4 mps 735 mmHg 70%
    10:00 +6°C° 0 mm 5 mps 734 mmHg 64%
    11:00 +7°C° 0 mm 6 mps 734 mmHg 57%
    12:00 +8°C° 0 mm 6 mps 733 mmHg 51%
    13:00 +8°C° 0.1 mm 7 mps 732 mmHg 58%
    14:00 +6°C° 0.1 mm 7 mps 731 mmHg 66%
    15:00 +5°C° 0.1 mm 7 mps 731 mmHg 73%
    16:00 +4°C° 1.7 mm 7 mps 729 mmHg 79%
    17:00 +4°C° 1.7 mm 7 mps 728 mmHg 86%
    18:00 +4°C° 1.7 mm 6 mps 727 mmHg 92%
    19:00 +4°C° 0.4 mm 7 mps 726 mmHg 89%
    20:00 +5°C° 0.4 mm 8 mps 726 mmHg 86%
    21:00 +5°C° 0.4 mm 9 mps 726 mmHg 83%
    22:00 +3°C° 0 mm 9 mps 726 mmHg 83%
    23:00 +1°C° 0 mm 9 mps 726 mmHg 82%

    23 September, Monday

    Time Temperature Precipitation Wind Pressure Humidity
    00:00 0°C° 0 mm 9 mps 726 mmHg 82%
    01:00 0°C° 0 mm 10 mps 726 mmHg 82%
    02:00 -1°C° 0 mm 12 mps 726 mmHg 83%
    03:00 -1°C° 0 mm 13 mps 726 mmHg 83%
    04:00 -1°C° 0.4 mm 13 mps 727 mmHg 86%
    05:00 -1°C° 0.4 mm 12 mps 728 mmHg 89%
    06:00 -1°C° 0.4 mm 12 mps 728 mmHg 92%
    07:00 -1°C° 0.1 mm 12 mps 730 mmHg 91%
    08:00 -1°C° 0.1 mm 11 mps 731 mmHg 90%
    09:00 -1°C° 0.1 mm 11 mps 732 mmHg 89%
    10:00 0°C° 0 mm 10 mps 734 mmHg 84%
    11:00 +1°C° 0 mm 10 mps 735 mmHg 80%
    12:00 +1°C° 0 mm 9 mps 736 mmHg 75%
    13:00 +1°C° 0 mm 9 mps 737 mmHg 72%
    14:00 +1°C° 0 mm 8 mps 738 mmHg 70%
    15:00 +2°C° 0 mm 8 mps 738 mmHg 67%
    16:00 +2°C° 0 mm 7 mps 739 mmHg 69%
    17:00 +2°C° 0 mm 6 mps 740 mmHg 70%
    18:00 +2°C° 0 mm 5 mps 740 mmHg 72%
    19:00 +1°C° 0 mm 5 mps 741 mmHg 74%
    20:00 +1°C° 0 mm 4 mps 741 mmHg 76%
    21:00 +1°C° 0 mm 4 mps 742 mmHg 78%
    22:00 0°C° 0 mm 4 mps 742 mmHg 80%
    23:00 0°C° 0 mm 4 mps 742 mmHg 82%

    24 September, Tuesday

    Time Temperature Precipitation Wind Pressure Humidity
    00:00 -1°C° 0 mm 4 mps 742 mmHg 84%
    01:00 -1°C° 0 mm 4 mps 742 mmHg 85%
    02:00 -1°C° 0 mm 4 mps 743 mmHg 87%
    03:00 -2°C° 0 mm 4 mps 743 mmHg 88%
    04:00 -2°C° 0 mm 4 mps 743 mmHg 89%
    05:00 -2°C° 0 mm 4 mps 743 mmHg 90%
    06:00 -3°C° 0 mm 4 mps 743 mmHg 92%
    07:00 -1°C° 0 mm 4 mps 743 mmHg 84%
    08:00 +1°C° 0 mm 5 mps 743 mmHg 76%
    09:00 +2°C° 0 mm 6 mps 743 mmHg 69%
    10:00 +3°C° 0.1 mm 6 mps 743 mmHg 63%
    11:00 +4°C° 0.1 mm 6 mps 743 mmHg 58%
    12:00 +5°C° 0.1 mm 6 mps 743 mmHg 53%
    13:00 +7°C° 0 mm 6 mps 743 mmHg 52%
    14:00 +7°C° 0 mm 6 mps 742 mmHg 50%
    15:00 +7°C° 0 mm 6 mps 742 mmHg 49%
    16:00 +6°C° 0 mm 5 mps 742 mmHg 54%
    17:00 +5°C° 0 mm 4 mps 742 mmHg 60%
    18:00 +4°C° 0 mm 3 mps 742 mmHg 65%
    19:00 +4°C° 0 mm 2 mps 743 mmHg 67%
    20:00 +4°C° 0 mm 2 mps 743 mmHg 70%
    21:00 +3°C° 0 mm 2 mps 743 mmHg 72%
    22:00 +3°C° 0 mm 2 mps 743 mmHg 74%
    23:00 +3°C° 0 mm 2 mps 743 mmHg 75%

    25 September, Wednesday

    Time Temperature Precipitation Wind Pressure Humidity
    00:00 +2°C° 0 mm 2 mps 743 mmHg 77%
    01:00 +2°C° 0 mm 2 mps 743 mmHg 77%
    02:00 +2°C° 0 mm 2 mps 743 mmHg 78%
    03:00 +3°C° 0 mm 1 mps 743 mmHg 79%
    04:00 +2°C° 0 mm 1 mps 743 mmHg 79%
    05:00 +2°C° 0 mm 1 mps 743 mmHg 79%
    06:00 +2°C° 0 mm 1 mps 743 mmHg 79%
    07:00 +4°C° 0 mm 1 mps 743 mmHg 74%
    08:00 +5°C° 0 mm 1 mps 743 mmHg 68%
    09:00 +6°C° 0 mm 1 mps 743 mmHg 62%
    10:00 +7°C° 0 mm 2 mps 743 mmHg 58%
    11:00 +8°C° 0 mm 2 mps 743 mmHg 53%
    12:00 +9°C° 0 mm 2 mps 743 mmHg 49%
    13:00 +10°C° 0 mm 2 mps 743 mmHg 48%
    14:00 +10°C° 0 mm 2 mps 742 mmHg 46%
    15:00 +12°C° 0 mm 2 mps 742 mmHg 45%
    16:00 +10°C° 0 mm 2 mps 742 mmHg 52%
    17:00 +9°C° 0 mm 2 mps 742 mmHg 59%
    18:00 +8°C° 0 mm 2 mps 742 mmHg 67%
    19:00 +7°C° 0 mm 2 mps 742 mmHg 73%
    20:00 +7°C° 0 mm 1 mps 742 mmHg 80%
    21:00 +6°C° 0 mm 1 mps 742 mmHg 87%
    22:00 +6°C° 0 mm 1 mps 742 mmHg 85%
    23:00 +5°C° 0 mm 2 mps 742 mmHg 83%
    Show more